Location: Asheville, NC
(35.6000°N, 82.5500°W)
Time: 16:18:11

KAITUO 1B - Pass Details

Date: 08 January 2018
Orbit: 500 x 520 km, 97.5° (Epoch: 21 March)

Event Time Altitude Azimuth Distance (km) Brightness Sun altitude
Rises 19:06:11 0° 209° (SSW) 2,630 ? -18.3°
Reaches altitude 10° 19:09:12 10° 236° (SW) 1,749 ? -18.9°
Maximum altitude 19:11:08 14° 267° (W) 1,540 ? -19.3°
Drops below altitude 10° 19:13:04 10° 298° (WNW) 1,756 ? -19.7°
Sets 19:16:07 0° 325° (NW) 2,649 ? -20.3°
